Simultaneous Nadir Overpasses (SNOs) Predictions

Prediction of SNOs between METOP-C and LANDSAT-8 Satellite Orbit:

Table of predicted SNOs for the next 14.0 days since TLE Epoch: 6/3/2023
Index Date (METOP-C) Time (METOP-C) Lat,Lon (METOP-C) SZA (METOP-C ) Date (LANDSAT-8) Time (LANDSAT-8) Lat,Lon (LANDSAT-8) SZA (LANDSAT-8 ) Distance(km) Time Diff (sec)
1 06/03/2023 07:24:25 -81.18, -70.30 118.82 06/03/2023 07:24:31 -81.18, -70.34 118.83 0.68 6
2 06/03/2023 08:15:04 81.20, 97.75 61.27 06/03/2023 08:13:56 81.21, 97.79 61.25 0.82 68
3 06/06/2023 02:58:44 -81.18, -3.79 119.14 06/06/2023 02:58:49 -81.18, -3.90 119.16 2.14 5
4 06/06/2023 03:49:23 81.20, 164.19 60.94 06/06/2023 03:48:14 81.20, 164.20 60.91 0.33 69
5 06/08/2023 22:33:02 -81.18, 62.66 119.42 06/08/2023 22:33:05 -81.19, 62.77 119.40 2.03 3
6 06/08/2023 23:23:41 81.20,-129.45 60.65 06/08/2023 23:22:31 81.20,-129.52 60.61 1.34 70
7 06/11/2023 18:07:21 -81.18, 129.03 119.66 06/11/2023 18:07:23 -81.18, 128.95 119.67 1.70 2
8 06/11/2023 18:58:00 81.20, -63.16 60.40 06/11/2023 18:56:48 81.20, -63.00 60.39 2.78 72
9 06/14/2023 12:51:02 81.14, 26.69 59.98 06/14/2023 12:52:16 81.10, 26.60 59.98 3.89 74
10 06/14/2023 13:41:40 -81.18,-164.67 119.85 06/14/2023 13:41:40 -81.17,-164.64 119.85 0.70 0



Historial Predications of SNOs between METOP-C and LANDSAT-8
